Location: Hains Lake
(37.8540°N, 99.8578°W)
Time: 09:48:51
(UTC+00:00)

Tiros 1 despin weight - Pass Details

Date: 23 April 2021
Orbit: 593 x 642 km, 48.2° (Epoch: 07 May)

Event Time Altitude Azimuth Distance (km) Brightness Sun altitude
Rises 10:57:34 0° 251° (WSW) 2,921 - -11.0°
Reaches altitude 10° 10:59:58 10° 257° (WSW) 2,008 - -10.6°
Exits shadow 11:00:34 14° 259° (W) 1,784 ? -10.5°
Maximum altitude 11:04:28 50° 333° (NNW) 795 ? -9.8°
Drops below altitude 10° 11:08:55 10° 49° (NE) 1,986 ? -9.0°
Sets 11:11:16 0° 55° (NE) 2,885 ? -8.6°
